Regional Weather Roundup
Issued by NWS

Home | Current Version | Previous Version | Text Only | Print | Product List | Glossary Off
Versions: 1 2 3 4 5 6 7 8 9 10 11 12 13 14 15 16 17 18 19 20 21 22 23 24 25 26 27 28 29 30 31 32 33 34 35 36 37 38 39 40 41 42 43 44 45 46 47 48 49 50

650
ASUS43 KBIS 111831
RWRND
NORTH DAKOTA REGIONAL WEATHER ROUNDUP
NATIONAL WEATHER SERVICE EASTERN NORTH DAKOTA/GRAND FORKS ND
1200 PM CST THU FEB 11 2016

  NOTE: "FAIR" INDICATES FEW OR NO CLOUDS BELOW 12,000 FEET WITH NO
  SIGNIFICANT WEATHER AND/OR OBSTRUCTIONS TO VISIBILITY.

NDZ001>003-009>011-017-111900-
...NORTHWEST NORTH DAKOTA...

CITY           SKY/WX    TMP DP  RH WIND       PRES   REMARKS
WILLISTON      LGT SNOW  24  20  84 E5        30.15S VSB 3/4 WCI  18
6HR MIN TEMP:  22; 6HR MAX TEMP:  24; 6HR PCP:  0.10;

MINOT          LGT SNOW  19   9  65 N3        30.17S
MINOT AFB      FLURRIES  17  12  80 NE2       30.17R
6HR MIN TEMP:  11; 6HR MAX TEMP:  17; 6HR PCP: TRACE;

$$

NDZ018>021-031>035-040>046-111900-
...SOUTHWEST NORTH DAKOTA...

CITY           SKY/WX    TMP DP  RH WIND       PRES   REMARKS
BISMARCK       LGT SNOW  25  18  74 NE3       30.13F
DICKINSON      LGT SNOW  22  18  85 NE13      30.04R FOG     WCI  10
GARRISON         N/A     18  13  80 E6        30.14R WCI  10
HETTINGER      SNOW      31  28  89 E7        30.02R VSB 1/2 WCI  24
$$

NDZ004>008-012>016-024-026-027-054-111900-
...NORTHEAST NORTH DAKOTA...

CITY           SKY/WX    TMP DP  RH WIND       PRES   REMARKS
GRAND FORKS    CLOUDY    12   3  67 SW7       30.25F WCI   1
GRAND FORKS AF CLOUDY    12   3  66 W5        30.24S WCI   4
DEVILS LAKE    FLURRIES  10   5  80 N6        30.19S WCI   0
$$

NDZ022-023-025-028>030-036>039-047>053-111900-
...SOUTHEAST NORTH DAKOTA...

CITY           SKY/WX    TMP DP  RH WIND       PRES   REMARKS
JAMESTOWN      CLOUDY    12   8  84 S3        30.17R
FARGO          CLOUDY    14  -1  51 CALM      30.24F
WAHPETON       CLOUDY    12   5  73 SE6       30.24F WCI   3
$$




USA.gov is the U.S. government's official web portal to all federal, state and local government web resources and services.